Weather History for Springfield, VT

Change the Weather History Date:

Friday, December 2, 2011

  Actual Average Record
Temperature  
Mean Temperature 31 °F 31 °F  
Max Temperature 40 °F 39 °F 62 °F (1998)
Min Temperature 22 °F 23 °F 8 °F (2003)
Degree Days  
Heating Degree Days 34 34  
Month to date heating degree days 63 68  
Since 1 July heating degree days 1301 1711  
Moisture  
Dew Point 24 °F    
Average Humidity 71    
Maximum Humidity 88    
Minimum Humidity 54    
Precipitation  
Precipitation 0.00 in 0.11 in 0.86 in (1996)
Month to date precipitation 0.00 0.23  
Year to date precipitation 51.03 40.81  
Sea Level Pressure  
Sea Level Pressure 30.35 in    
Wind  
Wind Speed 1 mph (NW)    
Max Wind Speed 9 mph    
Max Gust Speed 14 mph    
Visibility 10 miles    
Events      
T = Trace of Precipitation, MM = Missing Value Source: NWS Daily Summary

Daily Weather History Graph

Daily Weather History Graph

Search for Another Location

Airport:

Trip Planner

Search our weather history database for the weather conditions in past years. The results will help you decide how hot, cold, wet, or windy it might be!

Date:

Astronomy

Dec. 02, 2011 Rise Set
Actual Time 7:03 AM EST 4:15 PM EST
Civil Twilight 6:31 AM EST 4:47 PM EST
Nautical Twilight 5:55 AM EST 5:22 PM EST
Astronomical Twilight 5:21 AM EST 5:57 PM EST
Moon 12:03 PM EST (12/2) No Moon Set
Length of Visible Light 10h 15m
Length of Day
9h 11m
First Quarter, 53% of the Moon is Illuminated
Dec 2
First Quarter
Dec 10
Full
Dec 17
Last Quarter
Dec 24
New
Jan 1
First Quarter

Hourly Weather History & Observations

Time (EST) Temp. Windchill Dew Point Humidity Pressure Visibility Wind Dir Wind Speed Gust Speed Precip Events Conditions
12:54 AM 26.1 °F - 21.9 °F 84% 30.31 in 10.0 mi Calm Calm - N/A   Clear
1:54 AM 25.0 °F - 21.9 °F 88% 30.32 in 10.0 mi Calm Calm - N/A   Clear
2:54 AM 25.0 °F - 21.0 °F 85% 30.32 in 10.0 mi Calm Calm - N/A   Clear
3:54 AM 25.0 °F - 21.0 °F 85% 30.32 in 10.0 mi Calm Calm - N/A   Clear
4:54 AM 24.1 °F - 19.9 °F 84% 30.33 in 10.0 mi Calm Calm - N/A   Clear
6:54 AM 23.0 °F - 19.9 °F 88% 30.32 in 10.0 mi Calm Calm - N/A   Clear
7:54 AM 24.1 °F - 21.0 °F 88% 30.32 in 10.0 mi Calm Calm - N/A   Clear
8:54 AM 28.0 °F - 24.1 °F 85% 30.32 in 10.0 mi Calm Calm - N/A   Clear
9:54 AM 32.0 °F - 24.1 °F 73% 30.32 in 10.0 mi Calm Calm - N/A   Scattered Clouds
10:54 AM 36.0 °F - 24.1 °F 62% 30.30 in 10.0 mi Calm Calm - N/A   Clear
11:54 AM 37.9 °F - 24.1 °F 57% 30.27 in 10.0 mi Calm Calm - N/A   Mostly Cloudy
12:54 PM 39.9 °F - 24.1 °F 53% 30.26 in 10.0 mi Calm Calm - N/A   Overcast
1:54 PM 39.9 °F - 24.1 °F 53% 30.26 in 10.0 mi Calm Calm - N/A   Overcast
2:54 PM 39.0 °F - 25.0 °F 57% 30.28 in 10.0 mi Calm Calm - N/A   Overcast
3:54 PM 37.9 °F 35.5 °F 25.0 °F 60% 30.30 in 10.0 mi NE 3.5 mph - N/A   Overcast
4:54 PM 33.1 °F - 26.1 °F 75% 30.33 in 10.0 mi Calm Calm - N/A   Overcast
5:54 PM 32.0 °F - 26.1 °F 79% 30.35 in 10.0 mi Calm Calm - N/A   Mostly Cloudy
6:54 PM 30.9 °F - 26.1 °F 82% 30.39 in 10.0 mi Calm Calm - N/A   Overcast
7:54 PM 32.0 °F - 26.1 °F 79% 30.42 in 10.0 mi Calm Calm - N/A   Mostly Cloudy
8:54 PM 37.0 °F 32.4 °F 27.0 °F 67% 30.43 in 10.0 mi West 5.8 mph - N/A   Partly Cloudy
9:54 PM 37.9 °F 34.4 °F 28.0 °F 68% 30.47 in 10.0 mi Variable 4.6 mph - N/A   Mostly Cloudy
10:54 PM 36.0 °F 31.1 °F 28.0 °F 73% 30.49 in 10.0 mi WNW 5.8 mph - N/A   Mostly Cloudy
11:54 PM 35.1 °F 29.3 °F 26.1 °F 70% 30.52 in 10.0 mi WNW 6.9 mph - N/A   Clear